This is the latest recevied weather packets stored in our database for station/object DB0OHA-13. If no packets are shown the sender has not sent any weather packets the latest 10 day(s).
| Time | Temp. | Humidity | Pressure | Rain* | Wind** | Luminosity | Snow |
|---|---|---|---|---|---|---|---|
| 1777557074 | 17.22° C | 40% | 1029.3 hPa | 0 mm | - | 615 W/m² | - |
| 1777556474 | 17.78° C | 37% | 1029.4 hPa | 0 mm | - | 642 W/m² | - |
| 1777555874 | 17.22° C | 38% | 1029.6 hPa | 0 mm | - | 651 W/m² | - |
| 1777555273 | 17.22° C | 36% | 1029.6 hPa | 0 mm | - | 656 W/m² | - |
| 1777554673 | 17.22° C | 38% | 1029.7 hPa | 0 mm | - | 681 W/m² | - |
| 1777554073 | 16.67° C | 36% | 1029.7 hPa | 0 mm | - | 692 W/m² | - |
| 1777553473 | 17.22° C | 38% | 1029.8 hPa | 0 mm | - | 695 W/m² | - |
| 1777552873 | 16.67° C | 37% | 1030 hPa | 0 mm | - | 717 W/m² | - |
| 1777552273 | 17.22° C | 37% | 1030 hPa | 0 mm | - | 725 W/m² | - |
| 1777551673 | 16.67° C | 38% | 1030.1 hPa | 0 mm | - | 733 W/m² | - |
| 1777551073 | 16.11° C | 37% | 1030.1 hPa | 0 mm | - | 743 W/m² | - |
| 1777549873 | 16.67° C | 38% | 1030.2 hPa | 0 mm | - | 758 W/m² | - |
| 1777549273 | 16.67° C | 38% | 1030.5 hPa | 0 mm | - | 756 W/m² | - |
| 1777548673 | 16.11° C | 37% | 1030.6 hPa | 0 mm | - | 753 W/m² | - |
| 1777548073 | 16.11° C | 37% | 1030.6 hPa | 0 mm | - | 751 W/m² | - |
| 1777547473 | 16.11° C | 34% | 1030.6 hPa | 0 mm | - | 750 W/m² | - |
| 1777546272 | 15.56° C | 36% | 1030.8 hPa | 0 mm | - | 713 W/m² | - |
| 1777545672 | 14.44° C | 37% | 1030.8 hPa | 0 mm | - | 642 W/m² | - |
| 1777545072 | 14.44° C | 38% | 1030.9 hPa | 0 mm | - | 582 W/m² | - |
| 1777544472 | 14.44° C | 38% | 1031.1 hPa | 0 mm | - | 609 W/m² | - |
| 1777543872 | 14.44° C | 37% | 1031.1 hPa | 0 mm | - | 673 W/m² | - |
| 1777543272 | 13.89° C | 39% | 1031.1 hPa | 0 mm | - | 719 W/m² | - |
| 1777542672 | 13.33° C | 39% | 1031 hPa | 0 mm | - | 713 W/m² | - |
| 1777542072 | 13.33° C | 39% | 1031.1 hPa | 0 mm | - | 701 W/m² | - |
| 1777540872 | 12.78° C | 38% | 1031.2 hPa | 0 mm | - | 676 W/m² | - |
* Rain latest hour (hover to see other rain measurements)
** Current wind speed in m/s (hover to see current wind gust speed)